Regional Weather Roundup
Issued by NWS Green Bay, WI

Home | Current Version | Previous Version | Text Only | Print | Product List | Glossary On
Versions: 1 2 3 4 5 6 7 8 9 10 11 12 13 14 15 16 17 18 19 20 21 22 23 24 25 26 27 28 29 30 31 32 33 34 35 36 37 38 39 40 41 42 43 44 45 46 47 48 49 50
000
ASUS43 KGRB 301900
RWRGRB

NORTH-CENTRAL AND NORTHEAST WISCONSIN REGIONAL WEATHER ROUNDUP
NATIONAL WEATHER SERVICE GREEN BAY WI
200 PM CDT TUE AUG 30 2016

WIZ005-009-010>012-018-019-302000-
NORTH CENTRAL WISCONSIN

CITY           SKY/WX    TMP DP  RH WIND       PRES   REMARKS
IRONWOOD       CLOUDY    72  57  59 VRB7      30.16F
MANITOWISH WTR NOT AVBL
ARBOR VITAE    NOT AVBL
EAGLE RIVER    NOT AVBL
LAND O LAKES   NOT AVBL
RHINELANDER    MOSUNNY   75  64  68 VRB3      30.15F
PHILLIPS       PTSUNNY   74  62  65 N3        30.15F
ANTIGO         NOT AVBL
TOMAHAWK       NOT AVBL
MERRILL        NOT AVBL
$$

WIZ013-073-302000-
NORTHEAST WISCONSIN

CITY           SKY/WX    TMP DP  RH WIND       PRES   REMARKS
IRON MOUNTAIN  MOSUNNY   79  63  57 NW10      30.09F
MARINETTE      MOSUNNY  N/A N/A N/A VRB5      30.05F
$$

WIZ017-030-035>037-045-302000-
CENTRAL WISCONSIN

CITY           SKY/WX    TMP DP  RH WIND       PRES   REMARKS
MEDFORD        NOT AVBL
WAUSAU         MOSUNNY   81  63  54 NW6       30.09F
MOSINEE        NOT AVBL
MARSHFIELD     MOSUNNY   82  65  56 W10       30.12F
WISC RAPIDS    CLOUDY    83  63  50 SW9       30.12F
STEVENS POINT  NOT AVBL
WAUPACA        NOT AVBL
SHAWANO        NOT AVBL
CLINTONVILLE   MOSUNNY   86  59  39 W8        30.08F
WAUTOMA        MOSUNNY   84  62  47 W8        30.10F
$$

WIZ038-039-048-051-302000-
FOX VALLEY

CITY           SKY/WX    TMP DP  RH WIND       PRES   REMARKS
NWS GREEN BAY  MOSUNNY   83  73  72 S8        30.07F
APPLETON       MOSUNNY   84  54  34 VRB5      30.08F
OSHKOSH        PTSUNNY   82  64  54 W6        30.08F
FOND DU LAC    MOSUNNY   84  65  52 NW6       30.09S
$$

WIZ022-050-052-302000-
EAST CENTRAL WISCONSIN

CITY           SKY/WX    TMP DP  RH WIND       PRES   REMARKS
EPHRAIM        NOT AVBL
WASHINGTON ISL NOT AVBL
STURGEON BAY   MOSUNNY   82  63  52 W7        30.07F
MANITOWOC      NOT AVBL
SHEBOYGAN      MOSUNNY   81  70  69 SE7       30.08F
$$

LMZ563-521-522-541>543-302000-
LAKESHORE

STATION/POSITION TIME  TEMP    WIND        PRES    VSBY  WAVE
                       AIR SEA DIR/SP/G                  HT/PER
                 (UTC) (F)     (DEG/KT/KT) (MB)    (MI)  (FT/S)
SHEBOYGAN LKSHOR 1800   70     170/ 12/ 13 1018.3F
KEWAUNEE LKSHORE 1800   69     170/  7/  8 1018.2F
ALGOMA MARINA    1815          100/  5/  6   N/A
NORTHPORT PIER   1800   79     300/  3/  6 1017.9F
N MID LAKE BUOY  1750   72 72  250/  6/  6 1017.7F         1/ 3
SISTER BAY LKSHO 1807   92     270/  5/  5   N/A
CHAMBERS ISLAND  1800   82     210/  4/  6 1017.6F
MENOMINEE LKSHOR 1800   77     160/  6/  8 1017.1F
$$




USA.gov is the U.S. government's official web portal to all federal, state and local government web resources and services.